| time (UTC) | temp C | wind direction | speed KPH | gust KPH | rain 1hr cm | rain 24hr cm | rain mn cm | humidity % | barometer mb |
| 20260906145055 | 29 | 157 | 3.2 | 3.2 | 0.00 | 0.00 | 0.00 | 76 | 1016.2 |
| 20260906144550 | 29 | 246 | 0.0 | 0.0 | 0.00 | 0.00 | 0.00 | 77 | 1016.2 |
| 20260906144045 | 28 | 226 | 3.2 | 3.2 | 0.00 | 0.00 | 0.00 | 78 | 1016.2 |
| 20260906143540 | 28 | 223 | 3.2 | 3.2 | 0.00 | 0.00 | 0.00 | 79 | 1016.2 |
| 20260906143032 | 28 | 236 | 1.6 | 1.6 | 0.00 | 0.00 | 0.00 | 80 | 1016.5 |
| 20260906142530 | 28 | 256 | 3.2 | 4.8 | 0.00 | 0.00 | 0.00 | 80 | 1016.2 |
| 20260906142027 | 28 | 170 | 1.6 | 3.2 | 0.00 | 0.00 | 0.00 | 80 | 1016.2 |
| 20260906141525 | 28 | 203 | 1.6 | 1.6 | 0.00 | 0.00 | 0.00 | 81 | 1016.2 |
| 20260906141021 | 28 | 213 | 3.2 | 3.2 | 0.00 | 0.00 | 0.00 | 80 | 1016.2 |
| 20260906140514 | 28 | 185 | 1.6 | 3.2 | 0.00 | 0.00 | 0.00 | 80 | 1016.2 |
| 20260906140014 | 27 | 269 | 1.6 | 1.6 | 0.00 | 0.00 | 0.00 | 82 | 1015.8 |
| 20260906135511 | 28 | 144 | 0.0 | 1.6 | 0.00 | 0.00 | 0.00 | 82 | 1016.2 |
| 20260906135007 | 27 | 171 | 4.8 | 8.0 | 0.00 | 0.00 | 0.00 | 82 | 1016.2 |
| 20260906134503 | 27 | 230 | 0.0 | 0.0 | 0.00 | 0.00 | 0.00 | 83 | 1016.2 |
| 20260906134003 | 27 | 177 | 1.6 | 3.2 | 0.00 | 0.00 | 0.00 | 83 | 1015.8 |
| 20260906133458 | 28 | 168 | 6.4 | 8.0 | 0.00 | 0.00 | 0.00 | 81 | 1015.8 |
| 20260906132954 | 27 | 192 | 0.0 | 1.6 | 0.00 | 0.00 | 0.00 | 82 | 1015.8 |
| 20260906132449 | 27 | 207 | 3.2 | 3.2 | 0.00 | 0.00 | 0.00 | 83 | 1015.5 |
| 20260906131944 | 27 | 217 | 3.2 | 3.2 | 0.00 | 0.00 | 0.00 | 84 | 1015.8 |
| 20260906131439 | 27 | 209 | 1.6 | 3.2 | 0.00 | 0.00 | 0.00 | 84 | 1015.8 |
| 20260906130935 | 26 | 154 | 1.6 | 3.2 | 0.00 | 0.00 | 0.00 | 86 | 1015.5 |
| 20260906130434 | 26 | 240 | 1.6 | 1.6 | 0.00 | 0.00 | 0.00 | 86 | 1015.5 |
| 20260906125929 | 26 | 155 | 3.2 | 3.2 | 0.00 | 0.00 | 0.00 | 87 | 1015.5 |
| 20260906125426 | 26 | 183 | 0.0 | 0.0 | 0.00 | 0.00 | 0.00 | 88 | 1015.5 |
| 20260906124926 | 26 | 226 | 0.0 | 0.0 | 0.00 | 0.00 | 0.00 | 88 | 1015.2 |
| 20260906124422 | 25 | 225 | 0.0 | 0.0 | 0.00 | 0.00 | 0.00 | 88 | 1015.2 |
| 20260906123921 | 25 | 225 | 0.0 | 0.0 | 0.00 | 0.00 | 0.00 | 88 | 1015.2 |
| 20260906123416 | 25 | 224 | 0.0 | 0.0 | 0.00 | 0.00 | 0.00 | 88 | 1015.2 |
| 20260906122916 | 25 | 234 | 0.0 | 0.0 | 0.00 | 0.00 | 0.00 | 88 | 1014.8 |
| 20260906122410 | 25 | 226 | 0.0 | 0.0 | 0.00 | 0.00 | 0.00 | 87 | 1014.8 |
| 20260906121908 | 25 | 233 | 0.0 | 0.0 | 0.00 | 0.00 | 0.00 | 87 | 1014.8 |
| 20260906121403 | 25 | 239 | 0.0 | 0.0 | 0.00 | 0.00 | 0.00 | 87 | 1014.8 |
| 20260906120859 | 25 | 237 | 0.0 | 0.0 | 0.00 | 0.00 | 0.00 | 87 | 1014.8 |
| 20260906120354 | 25 | 238 | 0.0 | 0.0 | 0.00 | 0.00 | 0.00 | 87 | 1014.8 |
| 20260906115851 | 25 | 228 | 0.0 | 1.6 | 0.00 | 0.00 | 0.00 | 86 | 1014.8 |
| 20260906115346 | 25 | 244 | 0.0 | 0.0 | 0.00 | 0.00 | 0.00 | 86 | 1014.5 |
| 20260906114845 | 26 | 235 | 0.0 | 0.0 | 0.00 | 0.00 | 0.00 | 86 | 1014.5 |
| 20260906114340 | 26 | 229 | 0.0 | 0.0 | 0.00 | 0.00 | 0.00 | 85 | 1014.1 |
| 20260906113835 | 26 | 246 | 0.0 | 0.0 | 0.00 | 0.00 | 0.00 | 85 | 1014.1 |
| 20260906113334 | 26 | 231 | 0.0 | 0.0 | 0.00 | 0.00 | 0.00 | 85 | 1014.1 |
| 20260906112830 | 26 | 231 | 0.0 | 0.0 | 0.00 | 0.00 | 0.00 | 85 | 1013.8 |
| 20260906112326 | 26 | 218 | 0.0 | 1.6 | 0.00 | 0.00 | 0.00 | 85 | 1013.8 |
| 20260906111825 | 26 | 225 | 1.6 | 1.6 | 0.00 | 0.00 | 0.00 | 85 | 1013.8 |
| 20260906111320 | 26 | 231 | 0.0 | 0.0 | 0.00 | 0.00 | 0.00 | 85 | 1013.8 |
| 20260906110815 | 26 | 225 | 0.0 | 0.0 | 0.00 | 0.00 | 0.00 | 85 | 1013.8 |
| 20260906110311 | 26 | 272 | 0.0 | 0.0 | 0.00 | 0.00 | 0.00 | 85 | 1013.8 |
| 20260906105809 | 26 | 239 | 0.0 | 0.0 | 0.00 | 0.00 | 0.00 | 85 | 1013.8 |
| 20260906105306 | 26 | 224 | 0.0 | 0.0 | 0.00 | 0.00 | 0.00 | 85 | 1013.8 |
| 20260906104801 | 26 | 233 | 0.0 | 0.0 | 0.00 | 0.00 | 0.00 | 84 | 1013.5 |
| 20260906104259 | 26 | 238 | 0.0 | 0.0 | 0.00 | 0.00 | 0.00 | 84 | 1013.5 |
| 20260906103757 | 26 | 230 | 0.0 | 0.0 | 0.00 | 0.00 | 0.00 | 84 | 1013.8 |
| 20260906103252 | 26 | 229 | 0.0 | 0.0 | 0.00 | 0.00 | 0.00 | 84 | 1013.8 |
| 20260906102748 | 26 | 237 | 0.0 | 0.0 | 0.00 | 0.00 | 0.00 | 83 | 1013.8 |
| 20260906102246 | 26 | 233 | 0.0 | 0.0 | 0.00 | 0.00 | 0.00 | 83 | 1013.8 |
| 20260906101742 | 26 | 229 | 0.0 | 1.6 | 0.00 | 0.00 | 0.00 | 82 | 1013.8 |
| 20260906101236 | 26 | 242 | 0.0 | 0.0 | 0.00 | 0.00 | 0.00 | 82 | 1013.8 |
| 20260906100732 | 27 | 214 | 0.0 | 0.0 | 0.00 | 0.00 | 0.00 | 81 | 1013.5 |
| 20260906100231 | 27 | 240 | 1.6 | 1.6 | 0.00 | 0.00 | 0.00 | 81 | 1013.8 |
| 20260906095727 | 27 | 232 | 1.6 | 1.6 | 0.00 | 0.00 | 0.00 | 81 | 1013.5 |
| 20260906095222 | 27 | 207 | 1.6 | 1.6 | 0.00 | 0.00 | 0.00 | 81 | 1013.8 |
| 20260906094721 | 27 | 223 | 1.6 | 1.6 | 0.00 | 0.00 | 0.00 | 81 | 1013.8 |
| 20260906094216 | 27 | 235 | 1.6 | 1.6 | 0.00 | 0.00 | 0.00 | 80 | 1013.8 |
| 20260906093713 | 27 | 208 | 0.0 | 0.0 | 0.00 | 0.00 | 0.00 | 80 | 1013.5 |
| 20260906093208 | 27 | 237 | 1.6 | 1.6 | 0.00 | 0.00 | 0.00 | 80 | 1013.8 |
| 20260906092703 | 27 | 194 | 0.0 | 1.6 | 0.00 | 0.00 | 0.00 | 79 | 1013.8 |
| 20260906092202 | 27 | 175 | 4.8 | 4.8 | 0.00 | 0.00 | 0.00 | 79 | 1013.8 |
| 20260906091659 | 27 | 254 | 0.0 | 0.0 | 0.00 | 0.00 | 0.00 | 79 | 1013.8 |
| 20260906091155 | 27 | 254 | 0.0 | 0.0 | 0.00 | 0.00 | 0.00 | 79 | 1013.8 |
| 20260906090651 | 27 | 206 | 1.6 | 1.6 | 0.00 | 0.00 | 0.00 | 79 | 1013.5 |
| 20260906090150 | 27 | 213 | 3.2 | 3.2 | 0.00 | 0.00 | 0.00 | 78 | 1013.5 |
| 20260906085648 | 27 | 190 | 3.2 | 3.2 | 0.00 | 0.00 | 0.00 | 78 | 1013.8 |
| 20260906085143 | 27 | 199 | 1.6 | 3.2 | 0.00 | 0.00 | 0.00 | 78 | 1013.8 |
| 20260906084638 | 27 | 232 | 1.6 | 3.2 | 0.00 | 0.00 | 0.00 | 78 | 1013.8 |
| 20260906084137 | 27 | 221 | 1.6 | 3.2 | 0.00 | 0.00 | 0.00 | 78 | 1013.8 |
| 20260906083632 | 27 | 229 | 1.6 | 3.2 | 0.00 | 0.00 | 0.00 | 78 | 1013.8 |
| 20260906083127 | 27 | 199 | 3.2 | 3.2 | 0.00 | 0.00 | 0.00 | 78 | 1013.5 |
| 20260906082623 | 27 | 185 | 1.6 | 1.6 | 0.00 | 0.00 | 0.00 | 78 | 1013.8 |
| 20260906082118 | 27 | 240 | 0.0 | 0.0 | 0.00 | 0.00 | 0.00 | 78 | 1013.8 |
| 20260906081614 | 27 | 214 | 1.6 | 1.6 | 0.00 | 0.00 | 0.00 | 77 | 1013.8 |
| 20260906081109 | 27 | 233 | 0.0 | 1.6 | 0.00 | 0.00 | 0.00 | 77 | 1013.8 |
| 20260906080605 | 27 | 208 | 3.2 | 3.2 | 0.00 | 0.00 | 0.00 | 77 | 1014.1 |
| 20260906075555 | 27 | 196 | 1.6 | 1.6 | 0.00 | 0.00 | 0.00 | 77 | 1013.8 |
| 20260906075050 | 27 | 220 | 3.2 | 3.2 | 0.00 | 0.00 | 0.00 | 76 | 1014.1 |
| 20260906074545 | 27 | 217 | 4.8 | 4.8 | 0.00 | 0.00 | 0.00 | 76 | 1014.1 |
| 20260906074043 | 27 | 201 | 3.2 | 3.2 | 0.00 | 0.00 | 0.00 | 76 | 1014.1 |
| 20260906073538 | 27 | 235 | 1.6 | 3.2 | 0.00 | 0.00 | 0.00 | 75 | 1014.1 |
| 20260906073034 | 28 | 182 | 0.0 | 1.6 | 0.00 | 0.00 | 0.00 | 75 | 1014.1 |
| 20260906072529 | 28 | 168 | 1.6 | 1.6 | 0.00 | 0.00 | 0.00 | 75 | 1014.1 |
| 20260906072025 | 28 | 186 | 1.6 | 1.6 | 0.00 | 0.00 | 0.00 | 75 | 1014.5 |
| 20260906071521 | 28 | 159 | 4.8 | 4.8 | 0.00 | 0.00 | 0.00 | 74 | 1014.1 |
| 20260906071016 | 28 | 223 | 1.6 | 3.2 | 0.00 | 0.00 | 0.00 | 74 | 1014.5 |
| 20260906070512 | 28 | 246 | 3.2 | 4.8 | 0.00 | 0.00 | 0.00 | 74 | 1014.5 |
| 20260906070008 | 28 | 235 | 0.0 | 1.6 | 0.00 | 0.00 | 0.00 | 73 | 1014.5 |
| 20260906065502 | 28 | 163 | 1.6 | 3.2 | 0.00 | 0.00 | 0.00 | 73 | 1014.5 |
| 20260906064957 | 28 | 188 | 1.6 | 1.6 | 0.00 | 0.00 | 0.00 | 73 | 1014.8 |
| 20260906064453 | 28 | 224 | 4.8 | 4.8 | 0.00 | 0.00 | 0.00 | 73 | 1014.5 |
| 20260906063948 | 28 | 236 | 1.6 | 3.2 | 0.00 | 0.00 | 0.00 | 73 | 1014.8 |
| 20260906063444 | 28 | 45 | 3.2 | 3.2 | 0.00 | 0.00 | 0.00 | 73 | 1014.8 |
| 20260906062943 | 28 | 237 | 0.0 | 0.0 | 0.00 | 0.00 | 0.00 | 73 | 1014.8 |
| 20260906062439 | 28 | 188 | 4.8 | 4.8 | 0.00 | 0.00 | 0.00 | 73 | 1014.8 |
| 20260906061933 | 28 | 209 | 4.8 | 4.8 | 0.00 | 0.00 | 0.00 | 73 | 1014.8 |
| 20260906061429 | 28 | 176 | 4.8 | 4.8 | 0.00 | 0.00 | 0.00 | 73 | 1014.8 |
| 20260906060924 | 28 | 210 | 4.8 | 4.8 | 0.00 | 0.00 | 0.00 | 73 | 1015.2 |
| 20260906060421 | 28 | 225 | 3.2 | 3.2 | 0.00 | 0.00 | 0.00 | 73 | 1014.8 |
| 20260906055917 | 29 | 228 | 4.8 | 4.8 | 0.00 | 0.00 | 0.00 | 72 | 1014.8 |
| 20260906055413 | 29 | 214 | 1.6 | 3.2 | 0.00 | 0.00 | 0.00 | 72 | 1014.8 |
| 20260906054908 | 29 | 238 | 3.2 | 3.2 | 0.00 | 0.00 | 0.00 | 72 | 1014.8 |
| 20260906054403 | 29 | 226 | 4.8 | 4.8 | 0.00 | 0.00 | 0.00 | 71 | 1014.5 |
| 20260906053859 | 29 | 222 | 3.2 | 3.2 | 0.00 | 0.00 | 0.00 | 71 | 1014.8 |
| 20260906053354 | 29 | 215 | 1.6 | 3.2 | 0.00 | 0.00 | 0.00 | 70 | 1014.8 |
| 20260906052850 | 29 | 229 | 3.2 | 3.2 | 0.00 | 0.00 | 0.00 | 71 | 1014.8 |
| 20260906052346 | 29 | 219 | 4.8 | 9.7 | 0.00 | 0.00 | 0.00 | 70 | 1014.8 |
| 20260906051843 | 30 | 204 | 1.6 | 3.2 | 0.00 | 0.00 | 0.00 | 69 | 1014.8 |
| 20260906051342 | 30 | 254 | 3.2 | 3.2 | 0.00 | 0.00 | 0.00 | 69 | 1014.5 |
| 20260906050839 | 30 | 252 | 1.6 | 3.2 | 0.00 | 0.00 | 0.00 | 69 | 1014.8 |
| 20260906050333 | 30 | 198 | 1.6 | 3.2 | 0.00 | 0.00 | 0.00 | 68 | 1014.5 |
| 20260906045832 | 30 | 192 | 1.6 | 1.6 | 0.00 | 0.00 | 0.00 | 68 | 1014.5 |
| 20260906045326 | 30 | 213 | 1.6 | 3.2 | 0.00 | 0.00 | 0.00 | 68 | 1014.8 |
| 20260906044823 | 30 | 188 | 1.6 | 1.6 | 0.00 | 0.00 | 0.00 | 68 | 1014.8 |
| 20260906044317 | 30 | 221 | 1.6 | 1.6 | 0.00 | 0.00 | 0.00 | 68 | 1014.8 |
| 20260906043813 | 30 | 222 | 1.6 | 1.6 | 0.00 | 0.00 | 0.00 | 68 | 1015.2 |
| 20260906043308 | 30 | 247 | 0.0 | 1.6 | 0.00 | 0.00 | 0.00 | 69 | 1014.8 |
| 20260906042803 | 30 | 237 | 0.0 | 0.0 | 0.00 | 0.00 | 0.00 | 68 | 1014.8 |
| 20260906042306 | 30 | 250 | 1.6 | 1.6 | 0.00 | 0.00 | 0.00 | 68 | 1014.8 |
| 20260906041758 | 30 | 214 | 1.6 | 1.6 | 0.00 | 0.00 | 0.00 | 68 | 1014.8 |
| 20260906041253 | 30 | 222 | 1.6 | 1.6 | 0.00 | 0.00 | 0.00 | 67 | 1014.8 |
| 20260906040748 | 30 | 233 | 0.0 | 0.0 | 0.00 | 0.00 | 0.00 | 67 | 1014.8 |
| 20260906040243 | 30 | 170 | 0.0 | 0.0 | 0.00 | 0.00 | 0.00 | 66 | 1014.8 |
| 20260906035738 | 30 | 204 | 0.0 | 1.6 | 0.00 | 0.00 | 0.00 | 66 | 1014.5 |
| 20260906035234 | 30 | 161 | 3.2 | 3.2 | 0.00 | 0.00 | 0.00 | 65 | 1014.5 |
| 20260906034734 | 30 | 223 | 1.6 | 3.2 | 0.00 | 0.00 | 0.00 | 65 | 1014.5 |
| 20260906034229 | 30 | 142 | 1.6 | 3.2 | 0.00 | 0.00 | 0.00 | 64 | 1014.8 |
| 20260906033725 | 30 | 189 | 3.2 | 3.2 | 0.00 | 0.00 | 0.00 | 63 | 1014.8 |
| 20260906033224 | 30 | 174 | 3.2 | 3.2 | 0.00 | 0.00 | 0.00 | 63 | 1014.8 |
| 20260906032721 | 30 | 248 | 0.0 | 1.6 | 0.00 | 0.00 | 0.00 | 62 | 1014.8 |
| 20260906032221 | 30 | 212 | 0.0 | 1.6 | 0.00 | 0.00 | 0.00 | 62 | 1014.8 |
| 20260906031716 | 30 | 232 | 3.2 | 3.2 | 0.00 | 0.00 | 0.00 | 61 | 1014.5 |
| 20260906031212 | 31 | 222 | 1.6 | 1.6 | 0.00 | 0.00 | 0.00 | 61 | 1014.5 |
| 20260906030711 | 31 | 237 | 1.6 | 1.6 | 0.00 | 0.00 | 0.00 | 60 | 1014.5 |
| 20260906030206 | 31 | 240 | 1.6 | 1.6 | 0.00 | 0.00 | 0.00 | 59 | 1014.5 |
| 20260906025706 | 31 | 133 | 4.8 | 8.0 | 0.00 | 0.00 | 0.00 | 59 | 1014.1 |
| 20260906025200 | 31 | 104 | 9.7 | 12.9 | 0.00 | 0.00 | 0.00 | 58 | 1013.8 |
| 20260906024654 | 31 | 157 | 4.8 | 8.0 | 0.00 | 0.00 | 0.00 | 58 | 1013.8 |
| 20260906024153 | 31 | 129 | 3.2 | 4.8 | 0.00 | 0.00 | 0.00 | 57 | 1013.5 |
| 20260906023650 | 31 | 81 | 3.2 | 4.8 | 0.00 | 0.00 | 0.00 | 57 | 1013.5 |
| 20260906023149 | 31 | 166 | 1.6 | 1.6 | 0.00 | 0.00 | 0.00 | 56 | 1013.5 |
| 20260906022644 | 32 | 89 | 3.2 | 3.2 | 0.00 | 0.00 | 0.00 | 56 | 1013.5 |
| 20260906022140 | 32 | 95 | 1.6 | 3.2 | 0.00 | 0.00 | 0.00 | 55 | 1012.7 |
| 20260906021636 | 32 | 61 | 1.6 | 1.6 | 0.00 | 0.00 | 0.00 | 55 | 1013.1 |
| 20260906021134 | 32 | 166 | 3.2 | 8.0 | 0.00 | 0.00 | 0.00 | 55 | 1012.7 |
| 20260906020629 | 32 | 311 | 6.4 | 11.3 | 0.00 | 0.00 | 0.00 | 54 | 1012.7 |
| 20260906020124 | 32 | 148 | 8.0 | 11.3 | 0.00 | 0.00 | 0.00 | 54 | 1012.7 |
| 20260906015618 | 32 | 265 | 8.0 | 9.7 | 0.00 | 0.00 | 0.00 | 54 | 1012.4 |
| 20260906015117 | 32 | 156 | 6.4 | 9.7 | 0.00 | 0.00 | 0.00 | 54 | 1012.7 |
| 20260906014612 | 32 | 165 | 1.6 | 3.2 | 0.00 | 0.00 | 0.00 | 54 | 1012.4 |
| 20260906014108 | 32 | 137 | 4.8 | 4.8 | 0.00 | 0.00 | 0.00 | 54 | 1012.7 |
| 20260906013603 | 32 | 90 | 8.0 | 11.3 | 0.00 | 0.00 | 0.00 | 54 | 1012.7 |
| 20260906013058 | 32 | 65 | 1.6 | 3.2 | 0.00 | 0.00 | 0.00 | 54 | 1012.7 |
| 20260906012553 | 32 | 166 | 1.6 | 3.2 | 0.00 | 0.00 | 0.00 | 54 | 1012.4 |
| 20260906012053 | 32 | 87 | 0.0 | 1.6 | 0.00 | 0.00 | 0.00 | 53 | 1012.4 |
| 20260906011549 | 33 | 218 | 1.6 | 1.6 | 0.00 | 0.00 | 0.00 | 52 | 1012.4 |
| 20260906011049 | 33 | 98 | 3.2 | 4.8 | 0.00 | 0.00 | 0.00 | 52 | 1012.4 |
| 20260906010544 | 32 | 217 | 0.0 | 1.6 | 0.00 | 0.00 | 0.00 | 51 | 1012.4 |
| 20260906010041 | 32 | 175 | 3.2 | 4.8 | 0.00 | 0.00 | 0.00 | 51 | 1012.4 |
| 20260906005540 | 33 | 172 | 4.8 | 4.8 | 0.00 | 0.00 | 0.00 | 50 | 1012.4 |
| 20260906005039 | 33 | 205 | 3.2 | 3.2 | 0.00 | 0.00 | 0.00 | 50 | 1012.4 |
| 20260906004538 | 32 | 211 | 4.8 | 8.0 | 0.00 | 0.00 | 0.00 | 50 | 1012.4 |
| 20260906004033 | 32 | 233 | 4.8 | 4.8 | 0.00 | 0.00 | 0.00 | 51 | 1012.0 |
| 20260906003528 | 32 | 134 | 4.8 | 8.0 | 0.00 | 0.00 | 0.00 | 53 | 1012.0 |
| 20260906003025 | 32 | 226 | 8.0 | 9.7 | 0.00 | 0.00 | 0.00 | 55 | 1012.4 |
| 20260906002519 | 33 | 165 | 8.0 | 9.7 | 0.00 | 0.00 | 0.00 | 53 | 1012.4 |
| 20260906002014 | 35 | 115 | 8.0 | 14.5 | 0.00 | 0.00 | 0.00 | 48 | 1012.0 |
| 20260906001510 | 35 | 126 | 4.8 | 9.7 | 0.00 | 0.00 | 0.00 | 44 | 1012.0 |
| 20260906001004 | 35 | 95 | 4.8 | 8.0 | 0.00 | 0.00 | 0.00 | 44 | 1012.0 |
| 20260906000500 | 36 | 113 | 3.2 | 3.2 | 0.00 | 0.00 | 0.00 | 43 | 1012.0 |
| 20260906000000 | 36 | 99 | 3.2 | 4.8 | 0.00 | 0.00 | 0.00 | 42 | 1012.0 |
| 20260905235454 | 36 | 61 | 4.8 | 9.7 | 0.00 | 0.00 | 0.00 | 41 | 1011.7 |
| 20260905234949 | 36 | 140 | 4.8 | 8.0 | 0.00 | 0.00 | 0.00 | 41 | 1011.7 |
| 20260905234444 | 37 | 160 | 3.2 | 3.2 | 0.00 | 0.00 | 0.00 | 40 | 1012.0 |
| 20260905233938 | 37 | 122 | 6.4 | 11.3 | 0.00 | 0.00 | 0.00 | 40 | 1012.0 |
| 20260905233434 | 37 | 165 | 1.6 | 1.6 | 0.00 | 0.00 | 0.00 | 39 | 1011.7 |
| 20260905232933 | 37 | 220 | 3.2 | 4.8 | 0.00 | 0.00 | 0.00 | 39 | 1011.7 |
| 20260905232429 | 37 | 249 | 0.0 | 1.6 | 0.00 | 0.00 | 0.00 | 39 | 1011.7 |
| 20260905231924 | 37 | 115 | 1.6 | 1.6 | 0.00 | 0.00 | 0.00 | 39 | 1011.7 |
| 20260905231420 | 37 | 121 | 3.2 | 3.2 | 0.00 | 0.00 | 0.00 | 37 | 1011.7 |
| 20260905230917 | 37 | 132 | 3.2 | 3.2 | 0.00 | 0.00 | 0.00 | 37 | 1011.7 |
| 20260905230414 | 37 | 52 | 0.0 | 0.0 | 0.00 | 0.00 | 0.00 | 37 | 1011.7 |
| 20260905225907 | 37 | 347 | 0.0 | 1.6 | 0.00 | 0.00 | 0.00 | 37 | 1011.7 |
| 20260905225403 | 38 | 56 | 1.6 | 4.8 | 0.00 | 0.00 | 0.00 | 37 | 1011.7 |
| 20260905224857 | 38 | 133 | 4.8 | 8.0 | 0.00 | 0.00 | 0.00 | 37 | 1011.7 |
| 20260905224353 | 37 | 263 | 1.6 | 3.2 | 0.00 | 0.00 | 0.00 | 37 | 1011.7 |
| 20260905223848 | 37 | 68 | 4.8 | 8.0 | 0.00 | 0.00 | 0.00 | 37 | 1011.7 |
| 20260905223346 | 38 | 277 | 1.6 | 1.6 | 0.00 | 0.00 | 0.00 | 37 | 1011.7 |
| 20260905222840 | 38 | 173 | 3.2 | 3.2 | 0.00 | 0.00 | 0.00 | 37 | 1011.7 |
| 20260905222339 | 38 | 46 | 0.0 | 0.0 | 0.00 | 0.00 | 0.00 | 36 | 1011.7 |
| 20260905221835 | 38 | 260 | 4.8 | 8.0 | 0.00 | 0.00 | 0.00 | 36 | 1011.7 |
| 20260905221332 | 38 | 197 | 1.6 | 3.2 | 0.00 | 0.00 | 0.00 | 36 | 1011.7 |
| 20260905220827 | 38 | 203 | 3.2 | 8.0 | 0.00 | 0.00 | 0.00 | 37 | 1011.7 |
| 20260905220323 | 38 | 173 | 3.2 | 4.8 | 0.00 | 0.00 | 0.00 | 36 | 1012.0 |
| 20260905215822 | 38 | 28 | 0.0 | 0.0 | 0.00 | 0.00 | 0.00 | 37 | 1011.7 |
| 20260905215318 | 38 | 269 | 3.2 | 3.2 | 0.00 | 0.00 | 0.00 | 36 | 1012.0 |
| 20260905214815 | 38 | 220 | 3.2 | 3.2 | 0.00 | 0.00 | 0.00 | 37 | 1011.7 |
| 20260905214310 | 38 | 252 | 4.8 | 8.0 | 0.00 | 0.00 | 0.00 | 36 | 1011.7 |
| 20260905213804 | 38 | 153 | 3.2 | 4.8 | 0.00 | 0.00 | 0.00 | 36 | 1012.0 |
| 20260905213300 | 38 | 246 | 1.6 | 1.6 | 0.00 | 0.00 | 0.00 | 35 | 1011.7 |
| 20260905212755 | 38 | 222 | 3.2 | 3.2 | 0.00 | 0.00 | 0.00 | 36 | 1011.7 |
| 20260905212254 | 38 | 136 | 3.2 | 3.2 | 0.00 | 0.00 | 0.00 | 37 | 1012.0 |
| 20260905211749 | 37 | 106 | 4.8 | 8.0 | 0.00 | 0.00 | 0.00 | 37 | 1012.0 |
| 20260905211244 | 39 | 185 | 4.8 | 4.8 | 0.00 | 0.00 | 0.00 | 36 | 1012.0 |
| 20260905210742 | 39 | 239 | 1.6 | 3.2 | 0.00 | 0.00 | 0.00 | 34 | 1012.0 |
| 20260905210240 | 38 | 203 | 1.6 | 1.6 | 0.00 | 0.00 | 0.00 | 36 | 1012.0 |
| 20260905205739 | 38 | 189 | 3.2 | 4.8 | 0.00 | 0.00 | 0.00 | 35 | 1012.4 |
| 20260905205235 | 38 | 202 | 4.8 | 8.0 | 0.00 | 0.00 | 0.00 | 36 | 1012.4 |
| 20260905204734 | 38 | 201 | 4.8 | 4.8 | 0.00 | 0.00 | 0.00 | 36 | 1012.0 |
| 20260905204230 | 38 | 202 | 3.2 | 4.8 | 0.00 | 0.00 | 0.00 | 36 | 1012.7 |
| 20260905203729 | 37 | 350 | 0.0 | 1.6 | 0.00 | 0.00 | 0.00 | 37 | 1012.7 |
| 20260905203225 | 38 | 200 | 9.7 | 11.3 | 0.00 | 0.00 | 0.00 | 36 | 1012.7 |
| 20260905202720 | 39 | 228 | 1.6 | 3.2 | 0.00 | 0.00 | 0.00 | 35 | 1012.7 |
| 20260905202215 | 38 | 208 | 1.6 | 3.2 | 0.00 | 0.00 | 0.00 | 35 | 1013.1 |
| 20260905201710 | 38 | 14 | 4.8 | 8.0 | 0.00 | 0.00 | 0.00 | 36 | 1012.7 |
| 20260905201205 | 38 | 293 | 0.0 | 0.0 | 0.00 | 0.00 | 0.00 | 36 | 1013.5 |
| 20260905200700 | 38 | 290 | 1.6 | 1.6 | 0.00 | 0.00 | 0.00 | 36 | 1013.5 |
| 20260905200156 | 38 | 178 | 3.2 | 4.8 | 0.00 | 0.00 | 0.00 | 35 | 1013.1 |
| 20260905195654 | 38 | 209 | 6.4 | 8.0 | 0.00 | 0.00 | 0.00 | 36 | 1013.5 |
| 20260905195149 | 38 | 226 | 8.0 | 9.7 | 0.00 | 0.00 | 0.00 | 35 | 1013.5 |
| 20260905194644 | 37 | 291 | 3.2 | 3.2 | 0.00 | 0.00 | 0.00 | 37 | 1013.5 |
| 20260905194144 | 37 | 237 | 6.4 | 9.7 | 0.00 | 0.00 | 0.00 | 37 | 1013.8 |
| 20260905193638 | 38 | 277 | 1.6 | 1.6 | 0.00 | 0.00 | 0.00 | 37 | 1013.5 |
| 20260905193133 | 37 | 268 | 0.0 | 3.2 | 0.00 | 0.00 | 0.00 | 37 | 1013.8 |
| 20260905192628 | 37 | 264 | 0.0 | 0.0 | 0.00 | 0.00 | 0.00 | 38 | 1014.1 |
| 20260905192125 | 37 | 300 | 1.6 | 1.6 | 0.00 | 0.00 | 0.00 | 38 | 1014.1 |
| 20260905191624 | 36 | 227 | 6.4 | 9.7 | 0.00 | 0.00 | 0.00 | 40 | 1014.1 |
| 20260905191122 | 37 | 128 | 3.2 | 4.8 | 0.00 | 0.00 | 0.00 | 40 | 1014.1 |
| 20260905190621 | 36 | 211 | 3.2 | 3.2 | 0.00 | 0.00 | 0.00 | 40 | 1014.1 |
| 20260905190115 | 37 | 142 | 1.6 | 3.2 | 0.00 | 0.00 | 0.00 | 39 | 1014.5 |
| 20260905185614 | 36 | 170 | 4.8 | 8.0 | 0.00 | 0.00 | 0.00 | 41 | 1014.5 |
| 20260905185108 | 36 | 172 | 4.8 | 8.0 | 0.00 | 0.00 | 0.00 | 41 | 1014.5 |
| 20260905184603 | 36 | 210 | 1.6 | 3.2 | 0.00 | 0.00 | 0.00 | 42 | 1014.5 |
| 20260905184101 | 36 | 254 | 0.0 | 1.6 | 0.00 | 0.00 | 0.00 | 40 | 1014.8 |
| 20260905183555 | 37 | 179 | 4.8 | 4.8 | 0.00 | 0.00 | 0.00 | 40 | 1014.5 |
| 20260905183051 | 36 | 253 | 3.2 | 3.2 | 0.00 | 0.00 | 0.00 | 40 | 1015.2 |
| 20260905182545 | 36 | 184 | 1.6 | 3.2 | 0.00 | 0.00 | 0.00 | 40 | 1014.8 |
| 20260905182044 | 36 | 132 | 1.6 | 3.2 | 0.00 | 0.00 | 0.00 | 42 | 1015.2 |
| 20260905181539 | 37 | 275 | 1.6 | 1.6 | 0.00 | 0.00 | 0.00 | 43 | 1015.2 |
| 20260905181039 | 36 | 148 | 0.0 | 1.6 | 0.00 | 0.00 | 0.00 | 43 | 1015.2 |
| 20260905180533 | 36 | 181 | 8.0 | 9.7 | 0.00 | 0.00 | 0.00 | 43 | 1015.5 |
| 20260905180029 | 36 | 283 | 4.8 | 4.8 | 0.00 | 0.00 | 0.00 | 44 | 1015.5 |
| 20260905175528 | 35 | 242 | 1.6 | 1.6 | 0.00 | 0.00 | 0.00 | 46 | 1015.5 |
| 20260905175024 | 36 | 174 | 6.4 | 8.0 | 0.00 | 0.00 | 0.00 | 45 | 1015.8 |
| 20260905174519 | 35 | 268 | 1.6 | 3.2 | 0.00 | 0.00 | 0.00 | 46 | 1016.2 |
| 20260905174014 | 35 | 293 | 4.8 | 4.8 | 0.00 | 0.00 | 0.00 | 46 | 1015.8 |
| 20260905173511 | 34 | 159 | 3.2 | 4.8 | 0.00 | 0.00 | 0.00 | 47 | 1016.2 |
| 20260905173006 | 35 | 206 | 8.0 | 9.7 | 0.00 | 0.00 | 0.00 | 45 | 1016.2 |
| 20260905172504 | 35 | 271 | 4.8 | 4.8 | 0.00 | 0.00 | 0.00 | 45 | 1016.2 |
| 20260905172000 | 35 | 186 | 4.8 | 8.0 | 0.00 | 0.00 | 0.00 | 48 | 1016.5 |
| 20260905171456 | 34 | 272 | 1.6 | 1.6 | 0.00 | 0.00 | 0.00 | 51 | 1016.2 |
| 20260905170952 | 34 | 89 | 6.4 | 9.7 | 0.00 | 0.00 | 0.00 | 52 | 1016.2 |
| 20260905170448 | 35 | 208 | 6.4 | 8.0 | 0.00 | 0.00 | 0.00 | 50 | 1016.2 |
| 20260905165947 | 34 | 198 | 4.8 | 8.0 | 0.00 | 0.00 | 0.00 | 51 | 1016.5 |
| 20260905165443 | 34 | 221 | 1.6 | 3.2 | 0.00 | 0.00 | 0.00 | 51 | 1016.5 |
| 20260905164938 | 33 | 226 | 4.8 | 4.8 | 0.00 | 0.00 | 0.00 | 53 | 1016.2 |
| 20260905164432 | 33 | 267 | 1.6 | 1.6 | 0.00 | 0.00 | 0.00 | 54 | 1016.2 |
| 20260905163927 | 33 | 237 | 4.8 | 4.8 | 0.00 | 0.00 | 0.00 | 56 | 1016.5 |
| 20260905163424 | 33 | 237 | 1.6 | 3.2 | 0.00 | 0.00 | 0.00 | 56 | 1016.5 |
| 20260905162920 | 33 | 207 | 9.7 | 14.5 | 0.00 | 0.00 | 0.00 | 54 | 1016.5 |
| 20260905162414 | 33 | 141 | 6.4 | 8.0 | 0.00 | 0.00 | 0.00 | 54 | 1016.5 |
| 20260905161909 | 33 | 206 | 8.0 | 12.9 | 0.00 | 0.00 | 0.00 | 56 | 1016.5 |
| 20260905161409 | 33 | 226 | 1.6 | 1.6 | 0.00 | 0.00 | 0.00 | 57 | 1016.5 |
| 20260905160906 | 33 | 143 | 3.2 | 3.2 | 0.00 | 0.00 | 0.00 | 59 | 1016.5 |
| 20260905160401 | 33 | 274 | 3.2 | 3.2 | 0.00 | 0.00 | 0.00 | 60 | 1016.9 |
| 20260905155855 | 33 | 254 | 3.2 | 4.8 | 0.00 | 0.00 | 0.00 | 60 | 1016.5 |
| 20260905155355 | 33 | 316 | 3.2 | 4.8 | 0.00 | 0.00 | 0.00 | 60 | 1016.5 |
| 20260905154854 | 32 | 183 | 4.8 | 4.8 | 0.00 | 0.00 | 0.00 | 62 | 1016.5 |
| 20260905154349 | 32 | 308 | 3.2 | 3.2 | 0.00 | 0.00 | 0.00 | 62 | 1016.5 |
| 20260905153845 | 32 | 279 | 1.6 | 1.6 | 0.00 | 0.00 | 0.00 | 62 | 1016.5 |
| 20260905153342 | 31 | 228 | 0.0 | 1.6 | 0.00 | 0.00 | 0.00 | 64 | 1016.5 |
| 20260905152841 | 32 | 271 | 1.6 | 1.6 | 0.00 | 0.00 | 0.00 | 65 | 1016.9 |
| 20260905152340 | 31 | 257 | 1.6 | 1.6 | 0.00 | 0.00 | 0.00 | 67 | 1016.5 |
| 20260905151835 | 31 | 268 | 0.0 | 1.6 | 0.00 | 0.00 | 0.00 | 68 | 1016.9 |
| 20260905151331 | 30 | 230 | 1.6 | 1.6 | 0.00 | 0.00 | 0.00 | 72 | 1016.5 |
| 20260905150831 | 31 | 262 | 1.6 | 1.6 | 0.00 | 0.00 | 0.00 | 68 | 1016.5 |
| 20260905150325 | 31 | 252 | 0.0 | 0.0 | 0.00 | 0.00 | 0.00 | 69 | 1016.5 |
| 20260905145822 | 30 | 206 | 3.2 | 3.2 | 0.00 | 0.00 | 0.00 | 72 | 1016.5 |